Regional Weather Roundup
Issued by NWS

Home | Current Version | Previous Version | Graphics & Text | Print | Product List | Glossary On
Versions: 1 2 3 4 5 6 7 8 9 10 11 12 13 14 15 16 17 18 19 20 21 22 23 24 25 26 27 28 29 30 31 32 33 34 35 36 37 38 39 40 41 42 43 44 45 46 47 48 49 50
000
ASUS43 KMPX 261910
RWRMN
WEATHER ROUNDUP FOR MINNESOTA
NATIONAL WEATHER SERVICE TWIN CITIES/CHANHASSEN MN
100 PM CST THU FEB 26 2015


NOTE: "FAIR" INDICATES FEW OR NO CLOUDS BELOW 12,000 FEET WITH NO
SIGNIFICANT WEATHER AND/OR OBSTRUCTIONS TO VISIBILITY. N/A MEANS
CURRENT SKY AND/OR WEATHER CONDITIONS ARE NOT AVAILABLE.

MNZ060>063-068>070-262000-
   Twin Cities Metro

CITY           SKY/WX    TMP DP  RH WIND       PRES   REMARKS
TWIN CITIES    MOSUNNY    9  -9  44 NW9G22    30.45F WCI  -4
ST PAUL        SUNNY      9  -9  44 NW13      30.46F WCI  -7
CRYSTAL        MOSUNNY    9  -7  48 NW10      30.44F WCI  -5
BLAINE         SUNNY      9  -8  47 NW13      30.43F WCI  -7
EDEN PRAIRIE   MOSUNNY    7  -8  50 NW9       30.44F WCI  -7
SOUTH ST PAUL  SUNNY      9  -8  46 N5        30.44F WCI   1
LAKE ELMO      FAIR       9  -6  52 NW10G16   30.44S WCI  -6
$$
MNZ001>005-007-008-013>017-022>024-027-028-262000-
   Northwest Minnesota

CITY           SKY/WX    TMP DP  RH WIND       PRES   REMARKS
BEMIDJI        SUNNY     -1 -13  56 N9        30.44S WCI -17
HALLOCK        SUNNY      1  -9  60 NW12      30.53F WCI -15
ROSEAU         SUNNY      1  -9  60 W12       30.47F WCI -15
WARROAD        SUNNY      1 -11  55 SW8       30.45F WCI -12
THIEF RVR FALL SUNNY     -2 -13  60 NW9       30.51S WCI -18
CROOKSTON      SUNNY      1  -6  71 N12       30.56F WCI -15
FOSSTON        SUNNY      1 -13  51 NW9       30.49S WCI -14
DETROIT LAKES  MOSUNNY    0  -8  71 N7        30.48S WCI -13
MOORHEAD       MOSUNNY    3  -6  66 N15       30.56F WCI -15
PARK RAPIDS    SUNNY      2 -12  52 NW9       30.42F WCI -13
MAHNOMEN       FAIR      -2 -10  69 NW8       30.50S WCI -16
$$
MNZ006-009>011-018-025>026-262000-
   North Central Minnesota

CITY           SKY/WX    TMP DP  RH WIND       PRES   REMARKS
BAUDETTE       SUNNY     -1 -15  51 NW8       30.43F WCI -15
FLAG ISLAND    SUNNY     -2 -11  65 S7        30.42F WCI -16
INTL FALLS     SUNNY      0 -15  49 W10       30.40F WCI -16
WASKISH        SUNNY      0 -11  60 SW8       30.44F WCI -15
BIG FORK       SUNNY      3 -15  43 NW6       30.40F WCI  -8
LONGVILLE      SUNNY      0 -15  50 W8        30.43F WCI -15
GRAND RAPIDS   SUNNY      1 -11  55 NW12      30.38F WCI -15
CRANE LAKE     SUNNY      0 -17  46 NW9       30.41F WCI -16
ORR            SUNNY      1 -15  46 W7        30.35F WCI -11
COOK           SUNNY      1 -13  51 NW7       30.37F WCI -11
WALKER         FAIR       0 -13  53 NW9       30.43F WCI -15
$$
MNZ012-019>021-037-262000-
   Northeast Minnesota

CITY           SKY/WX    TMP DP  RH WIND       PRES   REMARKS
DULUTH         SUNNY      5 -11  47 NW13      30.33F WCI -12
ELY            SUNNY      3 -15  43 NW10      30.33S WCI -12
HIBBING        SUNNY      2 -12  52 NW12      30.37F WCI -15
EVELETH        SUNNY      3 -13  47 NW7       30.37F WCI  -9
DULUTH HARBOR  SUNNY      9  -8  47 CALM      30.44F
TWO HARBORS    SUNNY     10  -8  44 NW7       30.34F WCI   0
SILVER BAY     SUNNY     12 -11  34 SW6       30.32F WCI   3
GRAND MARAIS     N/A     11  -9  40 W3        30.37F
G MARAIS ARPRT SUNNY      3 -17  39 W12G20    30.23S WCI -13
$$
MNZ029>031-032-039>041-046>048-054>057-064-262000-
   West Central Minnesota

CITY           SKY/WX    TMP DP  RH WIND       PRES   REMARKS
FERGUS FALLS   MOSUNNY    1  -9  60 NW15      30.56S WCI -18
WHEATON        MOSUNNY    0  -9  65 W14G20    30.57F HAZE    WCI -19
MORRIS           N/A      1  -8  66 NW18G25   30.50F HAZE    WCI -19
ALEXANDRIA     SUNNY      0 -11  59 NW15      30.45F WCI -19
ELBOW LAKE     CLOUDY    -1  -9  67 NW15G21   30.50F WCI -20
WADENA         SUNNY      0 -11  60 NW12      30.44F WCI -18
GLENWOOD       SUNNY      1  -9  60 NW16      30.46F WCI -18
APPLETON       SUNNY      3  -8  60 NW15      30.54S WCI -15
BENSON         CLOUDY     3  -8  60 N18       30.51S HAZE    WCI -17
ORTONVILLE     MOSUNNY    1  -9  60 N15       30.53F WCI -18
MADISON        SUNNY      1  -8  66 NW16      30.54S WCI -18
WILLMAR        FAIR       3  -8  60 NW17      30.49S WCI -17
$$
MNZ033>034-036-042>043-049>051-058-059-262000-
   Central Minnesota

CITY           SKY/WX    TMP DP  RH WIND       PRES   REMARKS
ST CLOUD       SUNNY      4  -8  57 NW10      30.45F WCI -11
SAUK CENTRE    FAIR       2 -10  58 NW12      30.45F WCI -15
PAYNESVILLE    MOSUNNY    1  -9  63 W12G18    30.46F WCI -16
AITKIN         MOSUNNY    7  -9  47 NW6       30.40F WCI  -3
PINE RIVER     SUNNY      1 -11  55 NW9       30.45F WCI -14
BRAINERD       SUNNY      3 -10  54 MISG      30.43F
STAPLES        SUNNY      1 -11  55 NW7       30.44F WCI -11
LONG PRAIRIE   FAIR       1  -9  60 NW10G16   30.44F WCI -14
LITTLE FALLS   SUNNY      5 -11  47 NW7       30.45F WCI  -7
LITCHFIELD     SUNNY      5  -6  61 NW9G17    30.46F WCI  -9
BUFFALO        SUNNY      7  -8  51 NW9       30.47F WCI  -7
MAPLE LAKE     SUNNY      8  -6  54 W8        30.46F WCI  -5
$$
MNZ037-044-045-052-053-262000-
   East Central Minnesota

CITY           SKY/WX    TMP DP  RH WIND       PRES   REMARKS
PRINCETON      MOSUNNY    7  -8  51 NW7       30.44F WCI  -5
MORA           SUNNY      7  -9  47 NW12      30.44F WCI  -9
CAMBRIDGE      MOSUNNY    9  -6  52 N5        30.42F WCI   0
RUSH CITY      MOSUNNY    8  -9  47 NW5       30.43F WCI  -1
MOOSE LAKE     SUNNY      7  -9  47 CALM      30.39F
HINCKLEY       FAIR       9  -8  47 N9        30.42F WCI  -5
CLOQUET        SUNNY      3 -13  47 N7G17     30.36F WCI  -9
MCGREGOR       SUNNY      5  -8  56 NW8       30.41F WCI  -8
$$
MNZ071>073-080-081-089-090-097-098-262000-
   Southwest Minnesota

CITY           SKY/WX    TMP DP  RH WIND       PRES   REMARKS
MONTEVIDEO     MOSUNNY    3  -6  66 N13G18    30.53F WCI -14
GRANITE FALLS  CLOUDY     3  -6  65 NW14G20   30.53F WCI -15
CANBY          PTSUNNY    2  -8  63 N14       30.53F WCI -16
MARSHALL       PTSUNNY    0  -8  71 NW14      30.52S WCI -19
REDWOOD FALLS  PTSUNNY    4  -8  57 NW18      30.50F WCI -16
OLIVIA         MOSUNNY    3  -6  66 NW15      30.49S WCI -15
PIPESTONE      MOSUNNY    1  -6  71 N12G18    30.45S HAZE    WCI -15
WINDOM         MOSUNNY    1  -8  66 NW20      30.45F WCI -20
WORTHINGTON    PTSUNNY   18 -11  27 N17       30.45F WCI   2
JACKSON        PTSUNNY    3  -6  66 NW17G23   30.44S WCI -17
TRACY          PTSUNNY    3  -6  66 NW15      30.49S WCI -15
SLAYTON        MOSUNNY    1 -10  61 N14       30.45F WCI -18
$$
MNZ065>067-074>077-082>085-091>093-262000-
   South Central Minnesota

CITY           SKY/WX    TMP DP  RH WIND       PRES   REMARKS
MANKATO        MOSUNNY    3  -8  60 NW12      30.46F WCI -13
NEW ULM        SUNNY      1  -9  60 NW14      30.47F WCI -17
ST JAMES       MOSUNNY    3  -6  66 NW16      30.48F WCI -16
FAIRMONT       MOSUNNY    3  -6  66 NW16      30.44F WCI -16
GLENCOE        SUNNY      6  -4  63 NW10      30.46F WCI  -9
FARIBAULT      SUNNY      7  -8  51 NW10      30.43F WCI  -8
OWATONNA       SUNNY      5  -8  56 NW12      30.42S WCI -11
WASECA         SUNNY      5  -6  61 NW10      30.46S WCI -10
ALBERT LEA     SUNNY      3  -8  60 NW9       30.41F WCI -11
$$
MNZ078>079-086>088-094>096-262000-
   Southeast Minnesota

CITY           SKY/WX    TMP DP  RH WIND       PRES   REMARKS
ROCHESTER      MOSUNNY    4  -5  66 NW15      30.37F WCI -14
RED WING       MOSUNNY    9  -9  43 N6        30.43F WCI  -1
STANTON        SUNNY      8  -7  49 N10       30.42F WCI  -6
DODGE CENTER   SUNNY      3  -8  60 NW15      30.38S WCI -15
WINONA         PTSUNNY   12   0  57 NW8       30.42F WCI   1
AUSTIN         SUNNY      3  -8  60 NW13      30.39F WCI -14
PRESTON        SUNNY      4  -8  58 N12       30.36F WCI -12
$$
ABBREVIATIONS USED IN REMARKS
   TC - TEMPERATURES IN CELSIUS
  WCI - WIND CHILL INDEX
   HX - HEAT INDEX
  VSB - VISIBILITY
$$



USA.gov is the U.S. government's official web portal to all federal, state and local government web resources and services.